Content
SEND FEEDBACK

Daily
Averages
Monthly
Summary
China

CHONGQING, CHINA


Home > Asia > China
Elevation: 1151 feet     Latitude: 29 31N     Longitude: 106 29E

WEATHER
 
SELECT A DAY
Number of Records: 136,266;   Date Range: 1/29/00 - 12/19/14
 
SHARE

PRINT THIS DATA

[ ← Previous Day ]
WEATHER ALMANAC - APRIL 4, 2013
[ Next Day → ]
[ °C ]   °F
Weather ElementAverageHighLow
Temperature64.1 °F68 °F (1:00 am)62.6 °F (4:00 am)
Dewpoint56.5 °F59 °F (1:00 pm)53.6 °F (1:00 am)
Humidity75.6 %88 % (1:00 pm)53 % (2:00 am)
Barometer29.63 in29.71 in (1:00 am)29.58 in (5:00 pm)
Wind Speed6.9 mph11.2 mph (5:00 pm)
Weather ElementAverage
Visibility4.1 mi
Wind DirectionSE (132.2 °)

Weather ElementTotal
Precipitation---
Cooling Degree Days0.3 (Base 65)
Growing Degree Days15.3 (Base 50)
Averaged from 28 records on April 4, 2013
WEATHER CONDITIONS BREAKOUT
WIND DIRECTION BREAKOUT
WEATHER BY HOUR - APRIL 4, 2013
[ °C ]   °F
Local TimeTemperatureDewpointHumidityBarometerVisibilityWind DirectionWind SpeedGust SpeedPrecipitationEventsConditions
1:00 AM68.0 °F53.6 °F60 %29.71 in6.2 miSSE (150°)6.7 mphMostly Cloudy
2:00 AM68.0 °F55.0 °F53 %29.63 in6.0 miCalmMostly Cloudy
2:00 AM64.4 °F53.6 °F68 %29.65 inNNE (30°)6.7 mphClear
3:00 AM66.2 °F53.6 °F64 %29.65 inEast (80°)6.7 mphClear
4:00 AM62.6 °F53.6 °F72 %29.62 inNorth (360°)6.7 mphClear
5:00 AM64.4 °F53.6 °F68 %29.59 inNNE (20°)6.7 mphClear
6:00 AM64.4 °F53.6 °F68 %29.59 in6.2 miNorth (360°)6.7 mphScattered Clouds
7:00 AM64.4 °F53.6 °F68 %29.62 in6.2 miNorth (360°)8.9 mphRainLight Rain
8:00 AM65.0 °F56.0 °F65 %29.60 in6.0 miWNW (290°)2.2 mphRainLight Rain
8:00 AM64.4 °F55.4 °F73 %29.62 in6.2 miNE (50°)4.5 mphRainLight Rain
9:00 AM64.4 °F53.6 °F68 %29.65 in6.2 miENE (60°)6.7 mphOvercast
10:00 AM66.2 °F53.6 °F64 %29.65 in6.2 miNE (50°)4.5 mphOvercast
11:00 AM65.0 °F58.0 °F70 %29.63 in4.0 miSSE (160°)4.5 mphRainLight Rain
11:00 AM66.2 °F55.4 °F68 %29.65 in6.2 miVariable2.2 mphOvercast
12:00 PM62.6 °F57.2 °F82 %29.65 in3.7 miEast (80°)4.5 mphRain-ThunderstormLight Thunderstorms and Rain
1:00 PM62.6 °F59.0 °F88 %29.62 in2.5 miNorth (10°)6.7 mphOvercast
2:00 PM65.0 °F58.0 °F73 %29.59 in2.0 miNNW (340°)6.7 mphRainLight Rain
2:00 PM62.6 °F57.2 °F82 %29.62 in3.1 miNNE (20°)8.9 mphOvercast
3:00 PM62.6 °F59.0 °F88 %29.59 in1.7 miNorth (360°)8.9 mphRainLight Rain Showers
4:00 PM62.6 °F59.0 °F88 %29.59 in1.9 miNNE (20°)8.9 mphScattered Clouds
5:00 PM62.6 °F59.0 °F88 %29.59 in2.5 miNNE (20°)11.2 mphScattered Clouds
5:00 PM66.0 °F58.0 °F70 %29.58 in4.0 miNW (320°)2.2 mphHaze
6:00 PM62.6 °F59.0 °F88 %29.62 in2.5 miNorth (10°)8.9 mphOvercast
7:00 PM62.6 °F59.0 °F88 %29.62 in2.5 miNNE (20°)8.9 mphScattered Clouds
8:00 PM62.6 °F59.0 °F88 %29.65 in3.1 miNorth (10°)11.2 mphScattered Clouds
9:00 PM62.6 °F59.0 °F88 %29.65 in3.1 miNorth (10°)11.2 mphMist
10:00 PM62.6 °F59.0 °F88 %29.68 in3.1 miNNE (20°)11.2 mphMist
11:00 PM62.6 °F59.0 °F88 %29.71 in3.1 miNorth (360°)8.9 mphPartly Cloudy
Hourly data recorded from ZUCK, located miles away from Chongqing, China







STORIES FROM OUR PARTNERS